Vorticity
26 26 26 27 27 23 18 12 10 10 9 9 10 12 13 14 15 16 17 18 18 17 15 14 13 12 12 13 13 14 15 16 16 17 19 20 18 15 10 6 5 5 6 8 9 10 10 9 9 9 9 9 8 7 6 5 4 4 4 5 5 4 4 4 4 4 5 7 8
24 24 25 27 26 24 21 15 9 8 9 12 12 12 12 11 11 12 14 16 17 16 14 13 14 16 17 18 18 18 18 19 19 20 19 17 12 8 5 5 7 8 10 11 10 10 9 8 7 7 8 8 9 9 8 7 6 7 7 8 7 7 6 5 5 5 7 8 9
22 23 25 26 26 25 24 21 14 7 6 14 18 16 11 7 7 8 10 11 13 12 10 8 12 15 17 17 20 25 30 34 34 32 28 22 18 16 15 16 18 18 18 17 16 15 13 12 11 10 10 11 12 13 13 13 13 13 13 12 12 10 9 7 7 8 10 12 12
21 23 24 25 26 26 27 29 25 15 6 5 11 12 9 5 6 8 10 9 12 12 8 -0 -1 0 1 -1 -3 3 13 25 27 25 21 18 20 22 24 25 24 23 21 19 18 16 15 14 14 14 14 15 17 18 19 19 19 19 18 17 16 14 11 10 10 12 13 15 15
20 22 23 25 24 24 25 29 32 28 19 8 8 9 10 8 11 11 9 4 5 8 9 5 0 -2 -2 -3 -9 -14 -16 -14 -13 -13 -12 -8 -2 3 6 8 7 7 6 6 6 7 8 10 12 14 16 17 18 19 20 20 20 20 19 17 16 15 13 13 14 16 18 19 17
18 20 23 25 24 20 16 14 22 28 29 23 12 6 3 4 5 6 8 12 11 8 6 8 9 8 6 4 0 -5 -11 -17 -20 -19 -16 -12 -10 -10 -11 -12 -11 -8 -4 -1 3 5 7 9 12 13 14 15 15 15 16 16 17 17 16 16 15 15 15 15 17 19 20 21 19
17 19 21 24 25 21 14 4 5 13 22 23 7 -0 2 15 17 18 23 32 32 25 17 11 14 15 15 15 15 15 13 10 7 6 6 6 5 2 -1 -5 -6 -5 -3 1 3 6 8 10 11 11 12 12 12 12 12 13 14 15 15 15 15 15 15 17 18 20 21 21 19
16 18 21 24 26 25 19 10 5 6 10 13 3 1 5 12 13 19 28 37 39 38 36 34 34 33 34 35 39 42 43 41 36 31 27 23 20 17 15 11 8 6 5 5 5 6 8 10 11 11 11 11 11 11 11 13 14 15 16 16 16 16 16 17 18 20 21 21 19
16 17 19 22 26 26 23 16 11 7 5 4 4 4 4 2 3 12 23 29 25 23 24 26 28 29 29 28 30 32 34 35 33 30 27 25 25 24 23 22 20 18 16 14 13 12 12 13 14 14 13 13 13 13 13 14 15 16 17 17 17 17 17 18 18 19 20 20 19
18 17 18 21 25 27 25 19 13 9 7 4 6 5 3 -1 2 11 18 18 10 3 -2 -3 0 2 1 -3 -6 -6 -4 0 3 6 8 11 15 18 20 21 21 20 19 18 17 17 17 18 18 17 17 16 16 15 15 16 17 17 18 18 18 18 19 19 19 19 19 19 18
20 19 19 19 24 27 27 21 14 10 9 9 10 7 2 -2 6 13 15 10 1 -6 -10 -10 -5 -3 -4 -8 -12 -14 -16 -16 -15 -12 -8 -1 5 10 13 14 14 14 14 14 16 17 18 18 18 17 17 17 17 16 16 16 17 17 18 18 19 19 19 19 18 18 17 17 17
22 21 21 20 23 26 27 24 16 12 11 14 15 10 2 -5 1 9 13 9 -1 -7 -8 -1 5 7 6 4 3 3 3 3 3 3 4 6 8 10 11 10 10 10 10 11 13 14 14 15 15 15 16 17 16 16 15 15 15 16 17 18 19 19 19 18 17 16 16 16 16
24 24 23 22 22 24 26 24 19 16 16 19 22 16 6 -8 -11 -5 3 7 -0 -3 -1 7 10 10 9 9 11 14 18 22 22 21 20 18 17 15 13 11 9 8 8 8 9 10 10 11 12 13 15 16 16 15 14 14 14 15 15 16 17 17 17 17 16 15 15 15 16
26 26 25 23 22 23 23 23 20 19 19 22 26 23 13 -0 -11 -14 -12 -4 -1 3 6 10 9 7 7 7 11 16 20 23 22 21 20 19 18 16 14 11 8 6 5 4 5 5 6 7 9 12 14 15 15 15 14 14 14 14 14 14 15 16 16 16 16 16 16 16 18
27 27 26 24 23 22 22 21 20 20 21 23 28 27 19 7 -0 -6 -10 -7 0 6 8 8 5 5 6 9 14 18 19 19 17 16 15 14 14 13 11 9 7 5 4 3 4 5 6 6 9 12 15 15 15 15 14 14 13 13 13 13 14 15 16 16 16 17 18 19 20
27 27 26 25 23 22 21 21 20 20 21 23 27 27 22 12 6 3 2 3 8 9 8 4 3 6 10 15 18 18 17 15 14 14 13 12 11 10 9 8 6 6 6 7 8 9 9 9 11 14 15 16 15 15 14 14 14 13 13 13 14 14 15 16 17 18 19 21 23
26 26 26 25 23 22 22 21 20 20 21 22 24 24 21 16 12 10 11 16 17 14 8 1 2 7 12 17 17 15 14 14 14 14 13 11 10 9 8 7 7 7 9 10 12 12 12 11 13 15 16 15 15 15 15 15 14 14 13 13 13 13 14 15 16 17 20 22 24
25 26 25 24 23 22 22 21 20 20 21 22 21 20 19 19 18 18 20 25 23 17 10 2 1 3 7 10 11 13 14 15 14 12 10 8 8 8 8 8 8 9 10 11 12 12 12 13 14 15 14 13 14 15 15 15 15 15 14 13 13 13 13 13 14 16 19 22 24
25 25 25 25 24 23 22 21 20 19 20 20 19 18 18 21 20 19 19 20 20 17 13 6 -2 -6 -5 1 8 12 13 12 8 4 2 3 7 10 12 12 11 11 11 11 11 12 13 14 14 14 12 11 13 14 15 15 16 15 15 13 13 12 12 12 13 15 17 20 23
25 25 26 26 25 24 23 21 19 18 18 18 18 18 18 19 15 10 7 9 12 14 14 10 0 -6 -6 2 9 11 8 2 -5 -7 -6 -0 6 11 15 16 16 15 15 14 13 14 14 15 14 12 10 10 12 13 14 15 15 15 14 13 13 12 12 12 12 13 15 18 21
25 26 27 27 27 26 24 22 20 18 17 16 18 19 19 15 6 2 2 9 14 18 19 18 13 10 10 14 14 9 2 -7 -11 -10 -5 1 6 11 15 18 19 19 19 18 17 16 15 14 12 10 9 9 11 13 14 14 14 14 14 13 13 13 13 13 13 13 14 16 18
27 27 27 28 28 27 25 23 21 19 18 17 18 19 17 10 1 -1 4 15 23 28 31 32 32 30 26 22 15 7 -1 -9 -11 -8 -2 4 8 11 15 18 20 21 20 19 17 16 15 13 10 9 9 10 11 12 12 13 13 13 14 13 13 13 13 14 14 14 14 14 15
25 25 26 27 28 28 27 24 22 20 18 17 18 18 15 6 -3 -3 4 17 27 33 37 39 37 31 24 18 11 6 1 -6 -9 -6 1 6 9 11 14 18 20 20 18 17 15 14 13 11 10 9 10 11 11 11 11 11 12 13 14 14 14 14 15 15 15 15 15 14 14
19 21 23 26 28 28 27 25 22 20 18 17 18 16 11 3 -5 -4 3 15 24 30 32 30 24 17 12 10 9 7 2 -5 -5 -0 5 8 9 11 14 18 19 17 15 14 12 11 10 10 10 11 12 12 11 10 9 9 11 13 15 16 16 17 17 17 17 17 16 15 15
18 19 20 23 26 28 28 26 23 20 18 16 15 13 9 3 0 1 6 12 18 22 22 18 12 7 4 4 4 2 1 -0 3 5 7 7 8 11 15 18 17 14 12 10 9 9 9 10 12 13 14 13 11 10 9 10 13 15 17 19 19 19 20 20 20 20 19 18 16
23 22 20 20 24 27 29 28 25 22 19 16 15 13 12 11 10 10 9 9 12 13 12 9 6 4 2 3 4 4 5 5 5 5 5 6 9 13 16 17 13 10 8 7 7 8 9 11 12 14 14 13 12 11 11 13 15 17 19 20 21 21 22 22 22 23 22 21 19
27 25 22 19 21 24 28 29 27 23 20 18 18 19 20 20 17 13 9 6 5 4 3 1 0 0 1 3 5 7 7 6 5 5 6 8 12 15 15 13 9 6 5 5 7 8 10 12 14 14 14 14 13 13 13 13 14 14 14 15 17 19 21 22 23 24 24 24 23
28 26 23 19 18 21 25 29 28 25 22 20 19 19 19 19 16 12 7 4 3 2 1 -0 -1 -0 1 2 4 5 6 7 7 9 10 13 14 14 12 9 6 4 5 6 9 11 13 14 14 15 15 15 14 13 12 10 7 6 5 6 9 12 15 18 20 22 24 25 24
28 28 25 20 17 18 21 26 28 27 24 20 17 15 14 13 12 11 8 7 6 5 5 5 5 4 3 3 5 7 9 11 12 14 15 15 14 11 8 5 4 5 6 9 12 15 16 16 15 15 16 16 15 13 9 5 3 1 2 3 5 7 9 12 15 17 20 22 23
26 28 28 24 18 16 17 21 25 25 23 19 15 12 10 9 9 9 8 7 7 6 6 6 6 6 7 8 10 12 14 17 17 17 16 13 10 6 4 3 5 7 10 13 16 18 18 17 16 16 17 16 14 11 7 5 5 7 9 10 9 9 8 9 10 12 15 17 18
22 27 29 29 23 18 16 17 19 20 20 17 14 11 8 6 6 5 5 5 4 4 4 5 7 9 11 12 15 17 18 19 17 14 11 7 5 3 2 4 6 9 12 16 18 18 18 16 17 17 17 15 12 9 8 8 9 11 11 11 9 8 8 8 9 10 12 13 15
19 23 28 31 29 25 20 17 17 17 17 16 14 12 10 7 6 5 5 5 5 6 7 9 11 14 16 19 20 20 19 16 12 8 5 2 1 1 2 4 7 10 12 15 17 17 16 16 17 17 17 15 12 10 8 8 7 7 5 4 4 4 5 6 8 9 11 12 13
18 20 24 28 30 29 26 23 20 18 17 16 15 14 13 12 11 11 11 12 12 13 14 16 18 21 23 23 22 18 14 9 6 3 1 -0 -0 0 2 4 7 10 12 15 15 15 15 16 18 18 17 15 12 9 7 5 4 3 3 3 4 5 6 7 8 9 10 11 11
17 19 20 23 25 27 28 27 24 22 21 20 20 19 19 19 19 19 19 19 20 21 22 23 25 25 24 21 16 12 8 6 3 2 0 -1 -1 0 2 5 8 11 13 15 16 15 14 14 17 18 17 14 10 7 4 3 3 4 6 8 10 10 11 11 10 10 10 10 10
17 18 19 20 20 21 22 23 23 24 23 23 23 23 23 23 22 22 22 22 23 23 24 25 24 22 19 15 11 9 7 6 4 2 1 -1 -1 1 3 6 9 12 14 16 16 15 13 11 12 14 14 12 8 4 3 3 4 7 9 11 12 12 12 12 11 11 10 10 10
14 15 16 17 17 17 17 17 17 18 19 19 19 19 19 19 19 18 18 19 18 18 17 17 15 13 11 9 8 8 7 6 5 4 2 0 1 2 5 7 10 13 15 16 16 15 12 8 7 8 9 8 5 3 3 4 5 7 8 10 10 10 10 10 10 10 9 9 10
10 10 11 12 13 14 14 14 14 13 12 12 12 12 12 12 12 12 11 11 11 9 8 8 7 6 6 6 6 7 7 7 6 5 4 2 3 4 6 8 10 13 15 16 16 14 11 7 5 4 4 4 3 3 3 4 5 7 8 9 9 9 9 9 9 9 9 9 9
9 8 7 6 7 8 10 12 12 12 12 11 10 9 8 8 7 6 6 6 5 5 4 4 4 4 4 4 5 6 7 8 7 6 5 5 5 6 7 9 11 13 15 15 14 13 11 8 5 3 2 2 3 3 4 5 7 8 9 9 10 10 10 10 9 9 9 9 9
11 8 6 4 4 4 5 7 8 10 11 12 11 10 9 8 7 6 5 4 4 4 4 4 4 4 4 5 6 8 9 9 9 8 7 7 7 7 8 10 12 14 15 15 14 12 10 8 6 4 3 3 4 5 6 8 9 10 11 11 11 11 10 10 10 10 10 10 10
16 12 9 6 4 4 3 3 4 5 6 7 8 9 9 9 9 8 8 7 7 6 6 6 6 6 7 8 9 10 10 11 10 10 9 9 10 10 11 12 14 15 16 16 15 14 12 10 8 7 6 7 8 9 10 11 11 12 11 11 10 10 10 9 9 10 10 10 10
20 18 14 10 7 5 4 3 2 2 2 1 2 3 5 6 7 8 9 9 8 8 8 8 8 9 9 10 10 11 11 11 11 11 11 12 13 14 15 15 16 16 17 17 17 16 15 13 12 11 11 11 12 12 12 12 11 10 9 8 8 8 8 8 8 8 8 8 9
Height
5557 5557 5558 5558 5558 5558 5559 5560 5560 5560 5560 5561 5562 5563 5564 5565 5566 5566 5566 5568 5570 5570 5571 5572 5573 5574 5575 5575 5575 5575 5575 5576 5577 5577 5578 5579 5580 5580 5581 5581 5581 5582 5582 5582 5583 5583 5583 5584 5584 5585 5585 5585 5586 5586 5587 5587 5588 5589 5589 5590 5590 5591 5592 5592 5593 5593 5594 5595 5595
5551 5551 5551 5552 5552 5552 5553 5555 5555 5557 5558 5558 5559 5559 5560 5560 5561 5562 5562 5564 5565 5566 5567 5568 5569 5570 5570 5570 5571 5571 5571 5572 5572 5573 5573 5574 5575 5576 5576 5576 5576 5577 5577 5578 5578 5578 5579 5579 5580 5580 5580 5580 5581 5581 5582 5583 5584 5584 5585 5585 5586 5587 5587 5588 5588 5589 5589 5590 5590
5545 5545 5545 5546 5546 5546 5547 5548 5550 5552 5553 5555 5555 5555 5556 5556 5557 5558 5559 5560 5561 5562 5563 5564 5564 5565 5565 5566 5566 5567 5567 5568 5568 5568 5569 5570 5570 5571 5571 5571 5571 5572 5572 5573 5573 5573 5574 5575 5575 5575 5576 5576 5576 5577 5577 5578 5579 5580 5580 5580 5581 5582 5583 5583 5583 5584 5584 5585 5585
5540 5540 5540 5540 5540 5541 5541 5542 5543 5545 5547 5548 5550 5551 5551 5552 5553 5554 5555 5555 5556 5557 5558 5559 5559 5559 5560 5561 5561 5562 5563 5564 5564 5565 5565 5566 5566 5567 5567 5567 5567 5567 5567 5568 5568 5569 5569 5570 5570 5571 5571 5572 5572 5572 5572 5573 5574 5575 5575 5575 5576 5577 5578 5578 5578 5579 5579 5580 5580
5534 5534 5534 5534 5535 5535 5535 5536 5538 5539 5540 5542 5545 5546 5547 5547 5548 5549 5550 5551 5551 5552 5553 5554 5553 5554 5554 5555 5556 5557 5558 5559 5560 5561 5561 5562 5563 5563 5563 5563 5563 5563 5563 5563 5564 5564 5565 5565 5566 5566 5567 5567 5567 5567 5568 5568 5569 5570 5570 5571 5571 5572 5572 5573 5573 5574 5574 5575 5575
5529 5528 5528 5528 5529 5530 5530 5531 5533 5534 5535 5537 5540 5541 5542 5543 5544 5545 5545 5546 5546 5547 5548 5549 5549 5549 5550 5551 5552 5553 5554 5555 5555 5556 5557 5557 5558 5558 5559 5558 5558 5558 5559 5559 5559 5560 5560 5560 5561 5562 5562 5563 5563 5563 5563 5563 5564 5565 5565 5566 5566 5567 5567 5568 5568 5569 5569 5570 5571
5523 5523 5523 5523 5524 5524 5525 5527 5528 5529 5531 5533 5534 5535 5537 5538 5540 5540 5541 5541 5541 5542 5543 5544 5545 5545 5546 5547 5548 5549 5550 5551 5551 5552 5553 5553 5554 5554 5554 5554 5554 5554 5554 5555 5555 5555 5555 5556 5557 5557 5558 5558 5558 5558 5558 5559 5559 5560 5560 5561 5561 5562 5562 5563 5563 5564 5564 5565 5566
5517 5517 5517 5518 5518 5519 5520 5522 5523 5525 5526 5528 5529 5530 5531 5533 5535 5535 5536 5536 5536 5537 5538 5539 5540 5541 5542 5543 5545 5545 5546 5547 5548 5548 5549 5549 5550 5550 5550 5550 5550 5550 5550 5551 5551 5551 5552 5552 5553 5553 5553 5554 5554 5554 5554 5554 5555 5555 5556 5556 5557 5557 5557 5558 5558 5559 5560 5560 5561
5511 5511 5511 5512 5513 5513 5514 5515 5517 5519 5521 5523 5524 5525 5526 5527 5529 5530 5531 5531 5532 5532 5533 5534 5535 5536 5538 5539 5540 5541 5542 5542 5543 5544 5545 5545 5546 5546 5546 5546 5547 5547 5547 5547 5548 5548 5548 5549 5549 5549 5549 5550 5550 5550 5550 5550 5550 5551 5551 5552 5552 5552 5553 5553 5554 5555 5555 5556 5557
5505 5505 5505 5506 5507 5508 5508 5509 5511 5513 5515 5518 5520 5521 5522 5523 5524 5525 5527 5527 5527 5528 5528 5529 5530 5532 5533 5534 5535 5536 5537 5538 5539 5540 5540 5541 5541 5542 5542 5542 5543 5543 5544 5544 5544 5545 5545 5545 5545 5545 5545 5545 5545 5545 5546 5546 5546 5547 5547 5547 5548 5548 5548 5549 5550 5550 5551 5552 5553
5499 5499 5499 5500 5500 5502 5503 5504 5505 5506 5509 5511 5514 5516 5518 5519 5520 5521 5522 5523 5523 5524 5524 5525 5527 5528 5529 5530 5531 5532 5533 5534 5535 5536 5536 5537 5537 5538 5538 5538 5539 5539 5540 5540 5540 5541 5541 5541 5541 5541 5541 5541 5541 5541 5542 5542 5542 5543 5543 5543 5544 5544 5544 5545 5545 5546 5547 5547 5548
5494 5493 5493 5494 5494 5495 5497 5498 5499 5500 5502 5505 5507 5510 5512 5514 5516 5517 5519 5519 5520 5520 5520 5521 5523 5524 5525 5525 5527 5528 5529 5530 5531 5532 5532 5533 5534 5534 5534 5535 5535 5535 5536 5536 5537 5537 5537 5537 5538 5538 5538 5537 5538 5538 5538 5538 5538 5539 5539 5539 5540 5540 5540 5541 5541 5542 5542 5543 5544
5488 5488 5488 5488 5488 5490 5491 5492 5493 5495 5496 5499 5501 5504 5506 5508 5510 5513 5514 5515 5515 5515 5516 5518 5520 5520 5520 5521 5522 5523 5525 5525 5526 5527 5528 5529 5530 5530 5531 5531 5532 5532 5532 5533 5533 5534 5534 5534 5534 5534 5534 5534 5534 5534 5534 5534 5535 5535 5535 5535 5535 5536 5536 5537 5537 5538 5538 5539 5540
5483 5483 5483 5483 5483 5484 5485 5486 5488 5489 5491 5493 5496 5499 5501 5503 5505 5507 5509 5510 5511 5512 5513 5515 5515 5516 5516 5517 5518 5520 5521 5522 5522 5523 5524 5525 5525 5526 5527 5528 5528 5528 5529 5529 5530 5530 5530 5530 5530 5530 5530 5530 5530 5530 5530 5530 5530 5531 5531 5531 5532 5532 5532 5533 5533 5534 5535 5535 5536
5478 5478 5478 5478 5478 5479 5480 5481 5482 5484 5486 5489 5491 5494 5497 5499 5501 5503 5504 5506 5507 5508 5510 5511 5512 5512 5513 5514 5515 5516 5517 5518 5519 5519 5520 5521 5522 5523 5523 5524 5524 5525 5525 5525 5525 5526 5526 5526 5526 5526 5526 5526 5526 5526 5526 5526 5527 5527 5527 5527 5528 5528 5528 5529 5529 5530 5530 5531 5532
5473 5473 5473 5473 5473 5474 5475 5476 5478 5480 5482 5485 5487 5490 5493 5495 5497 5499 5501 5502 5504 5505 5507 5508 5508 5509 5510 5512 5513 5513 5514 5515 5515 5516 5517 5518 5518 5519 5520 5520 5520 5520 5521 5521 5522 5522 5522 5522 5522 5522 5522 5522 5522 5522 5522 5523 5523 5523 5523 5524 5524 5524 5525 5525 5525 5526 5527 5527 5528
5469 5469 5469 5469 5469 5470 5471 5472 5474 5475 5478 5480 5483 5486 5489 5491 5494 5496 5497 5499 5500 5502 5503 5504 5505 5507 5508 5509 5510 5510 5511 5511 5512 5513 5514 5515 5515 5516 5516 5516 5516 5517 5517 5517 5518 5518 5518 5518 5518 5518 5518 5518 5518 5518 5519 5519 5519 5519 5520 5520 5520 5520 5521 5521 5522 5522 5523 5524 5525
5464 5464 5464 5465 5465 5466 5467 5469 5470 5472 5474 5476 5479 5482 5485 5488 5490 5493 5494 5495 5497 5498 5499 5500 5502 5504 5505 5506 5507 5508 5508 5509 5510 5510 5511 5512 5512 5512 5512 5512 5513 5513 5513 5513 5514 5514 5514 5514 5514 5514 5514 5514 5514 5514 5515 5515 5515 5515 5516 5516 5516 5517 5517 5518 5518 5519 5520 5520 5521
5460 5460 5460 5461 5461 5462 5464 5465 5466 5468 5470 5473 5476 5479 5482 5485 5487 5490 5491 5493 5494 5495 5495 5497 5499 5500 5502 5503 5504 5505 5505 5506 5507 5508 5509 5509 5509 5508 5508 5509 5509 5509 5509 5510 5510 5510 5510 5510 5510 5510 5510 5510 5510 5510 5511 5511 5512 5512 5512 5513 5513 5514 5514 5515 5515 5515 5516 5517 5518
5457 5457 5457 5457 5458 5459 5460 5461 5463 5464 5466 5469 5472 5476 5479 5482 5485 5487 5489 5490 5491 5491 5492 5493 5495 5497 5498 5500 5500 5501 5502 5502 5503 5504 5505 5505 5505 5504 5505 5505 5505 5505 5505 5505 5506 5506 5506 5506 5507 5507 5507 5507 5507 5507 5507 5508 5508 5508 5509 5509 5510 5510 5511 5511 5512 5512 5513 5514 5515
5454 5454 5454 5454 5455 5456 5457 5458 5459 5461 5463 5465 5469 5472 5475 5478 5481 5483 5485 5486 5487 5488 5488 5489 5491 5493 5495 5496 5497 5497 5498 5499 5500 5500 5501 5500 5500 5500 5500 5501 5501 5501 5501 5502 5502 5502 5503 5503 5503 5503 5503 5503 5504 5504 5504 5505 5505 5505 5505 5506 5506 5507 5507 5508 5509 5509 5510 5511 5512
5451 5451 5451 5451 5452 5453 5454 5455 5456 5458 5460 5462 5465 5468 5471 5474 5477 5479 5480 5481 5483 5484 5484 5485 5487 5489 5491 5492 5493 5494 5495 5495 5496 5497 5496 5496 5496 5496 5496 5497 5497 5498 5498 5498 5498 5499 5499 5500 5500 5500 5500 5500 5500 5500 5501 5501 5501 5502 5502 5502 5503 5503 5504 5505 5505 5506 5507 5508 5509
5449 5448 5449 5449 5450 5450 5451 5452 5454 5455 5457 5460 5462 5465 5467 5470 5472 5475 5476 5478 5479 5480 5480 5482 5484 5485 5487 5488 5489 5490 5491 5492 5493 5493 5492 5492 5492 5492 5493 5493 5494 5494 5494 5495 5495 5495 5496 5496 5496 5496 5496 5497 5497 5497 5497 5498 5498 5499 5499 5499 5500 5500 5500 5501 5502 5503 5504 5505 5506
5446 5446 5447 5447 5448 5448 5449 5450 5451 5453 5455 5457 5460 5462 5464 5466 5469 5471 5473 5474 5475 5476 5477 5479 5481 5482 5484 5485 5486 5487 5489 5489 5490 5489 5489 5489 5489 5489 5490 5490 5490 5491 5491 5492 5492 5492 5493 5493 5493 5493 5493 5494 5494 5494 5494 5495 5495 5495 5496 5496 5496 5497 5497 5498 5499 5500 5501 5502 5503
5445 5445 5445 5445 5446 5446 5447 5448 5450 5451 5453 5455 5457 5459 5462 5464 5466 5468 5470 5471 5472 5473 5475 5476 5478 5480 5481 5482 5483 5485 5485 5486 5485 5485 5485 5485 5485 5486 5486 5487 5487 5488 5488 5489 5489 5489 5490 5490 5490 5490 5490 5490 5491 5491 5491 5492 5492 5493 5493 5493 5494 5494 5495 5495 5496 5497 5498 5499 5500
5443 5442 5443 5443 5444 5445 5445 5446 5448 5450 5451 5453 5455 5457 5459 5461 5463 5465 5466 5467 5468 5470 5471 5473 5475 5476 5477 5479 5480 5480 5481 5481 5481 5482 5482 5482 5483 5483 5483 5484 5485 5485 5486 5486 5486 5486 5486 5486 5486 5487 5487 5487 5488 5488 5489 5489 5489 5490 5490 5490 5490 5491 5492 5492 5493 5494 5495 5495 5496
5441 5441 5441 5441 5442 5443 5444 5445 5446 5448 5450 5451 5453 5455 5457 5459 5460 5462 5463 5465 5465 5467 5468 5470 5471 5472 5474 5475 5475 5476 5477 5477 5478 5479 5479 5480 5480 5480 5481 5481 5482 5482 5483 5483 5483 5483 5483 5483 5484 5484 5484 5485 5485 5485 5486 5486 5487 5487 5487 5488 5488 5488 5489 5490 5490 5491 5492 5493 5494
5440 5440 5440 5440 5441 5442 5442 5443 5445 5446 5448 5450 5451 5453 5455 5457 5458 5460 5461 5462 5463 5465 5466 5467 5468 5469 5470 5471 5472 5473 5474 5474 5475 5475 5476 5476 5477 5478 5478 5479 5479 5480 5480 5480 5480 5480 5480 5480 5480 5481 5481 5482 5482 5483 5483 5484 5484 5485 5485 5485 5485 5486 5486 5487 5488 5489 5489 5490 5491
5440 5440 5439 5439 5440 5440 5441 5442 5444 5445 5446 5448 5450 5452 5453 5454 5456 5457 5459 5460 5461 5463 5464 5465 5465 5466 5467 5468 5469 5470 5471 5471 5472 5473 5473 5474 5474 5475 5475 5476 5476 5477 5477 5478 5478 5478 5478 5478 5478 5478 5479 5479 5480 5480 5481 5481 5482 5482 5482 5483 5483 5484 5484 5485 5485 5486 5487 5488 5489
5440 5439 5439 5439 5439 5439 5440 5441 5442 5443 5445 5446 5448 5450 5451 5452 5454 5455 5456 5458 5459 5460 5461 5462 5463 5464 5465 5465 5466 5467 5468 5469 5469 5470 5470 5471 5472 5472 5473 5473 5474 5474 5475 5475 5475 5475 5475 5475 5475 5475 5476 5476 5477 5477 5478 5479 5479 5480 5480 5481 5481 5482 5482 5483 5483 5484 5485 5485 5486
5439 5439 5439 5438 5438 5438 5439 5440 5441 5442 5443 5444 5446 5447 5449 5450 5452 5453 5455 5456 5457 5458 5459 5459 5460 5461 5462 5462 5463 5464 5465 5466 5467 5467 5468 5469 5469 5470 5470 5470 5471 5471 5472 5472 5472 5472 5472 5472 5472 5473 5473 5474 5474 5475 5475 5476 5477 5477 5478 5478 5479 5480 5480 5480 5481 5481 5482 5483 5483
5439 5439 5438 5438 5438 5438 5439 5439 5440 5441 5442 5443 5444 5445 5447 5448 5450 5451 5452 5453 5454 5455 5456 5457 5457 5458 5459 5460 5461 5461 5462 5463 5464 5465 5465 5466 5466 5467 5467 5467 5468 5468 5469 5470 5470 5470 5470 5470 5470 5470 5470 5471 5471 5472 5473 5473 5474 5475 5475 5476 5476 5477 5478 5478 5479 5479 5480 5480 5481
5438 5438 5438 5438 5438 5438 5438 5439 5440 5440 5441 5442 5443 5444 5445 5446 5448 5449 5450 5450 5451 5452 5453 5454 5455 5456 5457 5458 5459 5460 5460 5461 5461 5462 5463 5463 5464 5464 5465 5465 5465 5465 5466 5467 5467 5467 5467 5467 5467 5467 5468 5468 5469 5469 5470 5471 5471 5472 5473 5473 5474 5474 5475 5475 5476 5476 5477 5477 5478
5438 5438 5438 5437 5438 5438 5438 5439 5439 5440 5440 5441 5442 5443 5444 5445 5446 5447 5448 5449 5450 5450 5451 5452 5453 5454 5455 5456 5457 5457 5458 5459 5459 5460 5460 5460 5461 5461 5462 5462 5462 5462 5463 5464 5465 5465 5465 5465 5465 5465 5465 5465 5466 5466 5467 5468 5469 5470 5470 5471 5471 5471 5472 5472 5473 5473 5474 5475 5475
5438 5438 5437 5437 5437 5437 5438 5438 5438 5439 5440 5440 5441 5442 5443 5444 5445 5445 5446 5447 5448 5448 5449 5450 5451 5452 5453 5454 5455 5455 5456 5456 5457 5457 5457 5458 5458 5459 5459 5459 5460 5460 5460 5461 5461 5462 5462 5462 5462 5462 5462 5462 5463 5463 5464 5465 5466 5467 5467 5468 5468 5469 5469 5469 5470 5470 5471 5471 5472
5438 5437 5437 5437 5437 5437 5437 5437 5438 5438 5439 5440 5440 5441 5442 5442 5443 5444 5445 5445 5446 5447 5447 5448 5449 5450 5451 5452 5452 5453 5454 5454 5454 5455 5455 5455 5455 5456 5456 5456 5457 5457 5457 5458 5458 5459 5459 5460 5460 5459 5459 5459 5460 5460 5461 5462 5463 5464 5465 5465 5465 5465 5466 5466 5466 5467 5468 5468 5469
5438 5437 5437 5437 5436 5436 5436 5437 5437 5437 5438 5439 5440 5440 5441 5441 5442 5442 5443 5444 5445 5445 5446 5447 5448 5449 5449 5450 5450 5451 5451 5451 5452 5452 5452 5453 5453 5453 5453 5454 5454 5454 5454 5455 5455 5455 5456 5456 5456 5456 5456 5456 5457 5457 5458 5459 5460 5460 5461 5462 5462 5462 5463 5463 5463 5464 5465 5465 5465
5438 5437 5437 5437 5436 5436 5436 5436 5436 5437 5437 5438 5439 5439 5440 5440 5441 5441 5442 5443 5443 5444 5445 5445 5446 5447 5447 5447 5448 5448 5449 5449 5449 5450 5450 5450 5450 5450 5450 5451 5451 5451 5451 5451 5452 5452 5453 5453 5453 5454 5454 5454 5454 5455 5455 5456 5457 5457 5458 5459 5459 5459 5460 5460 5460 5461 5461 5462 5463
5437 5437 5437 5437 5436 5436 5436 5436 5436 5436 5437 5437 5438 5438 5439 5439 5440 5440 5441 5441 5442 5443 5443 5444 5444 5445 5445 5445 5445 5446 5446 5446 5446 5447 5447 5447 5447 5447 5447 5448 5448 5448 5448 5448 5448 5449 5449 5450 5450 5450 5451 5451 5451 5452 5452 5453 5454 5454 5455 5455 5456 5456 5457 5457 5457 5458 5459 5459 5460
5437 5436 5436 5436 5436 5436 5436 5435 5435 5436 5436 5436 5437 5438 5438 5439 5439 5439 5440 5440 5440 5441 5441 5441 5442 5442 5442 5443 5443 5444 5444 5444 5444 5444 5444 5444 5444 5444 5444 5445 5445 5445 5445 5445 5445 5445 5445 5446 5447 5447 5448 5448 5448 5449 5449 5450 5450 5451 5452 5452 5453 5453 5454 5454 5455 5455 5455 5456 5457
5436 5435 5435 5435 5435 5435 5435 5435 5435 5435 5435 5435 5435 5436 5436 5436 5437 5437 5437 5438 5438 5438 5439 5439 5439 5440 5440 5440 5440 5441 5441 5441 5441 5441 5441 5441 5441 5441 5441 5441 5441 5441 5441 5441 5441 5441 5442 5443 5443 5444 5444 5445 5445 5445 5446 5447 5447 5448 5449 5449 5450 5450 5450 5451 5451 5452 5452 5453 5453